Denison, IA

2:03 PM CDT on March 26, 2017 (GMT -0500)
Denison Municipal

Weather History for KDNS - February, 2013

Change the Weather History Date:

Friday, February 22, 2013

  Actual Average Record
Temperature  
Mean Temperature 16 °F -  
Max Temperature 23 °F 35 °F 68 °F (2017)
Min Temperature 10 °F 21 °F 0 °F (2015)
Degree Days  
Heating Degree Days 48    
Moisture  
Dew Point 14 °F    
Average Humidity 83    
Maximum Humidity 93    
Minimum Humidity 74    
Precipitation  
Precipitation 0.01 in - - ()
Sea Level Pressure  
Sea Level Pressure 29.91 in    
Wind  
Wind Speed 11 mph (NW)    
Max Wind Speed 17 mph    
Max Gust Speed 25 mph    
Visibility 8 miles    
Events Rain , Snow    
Averages and records for this station are not official NWS values.
T = Trace of Precipitation, MM = Missing Value Source: NWS Daily Summary

Daily Weather History Graph

Daily Weather History Graph

Search for Another Location

Airport or City:

Trip Planner

Search our weather history database for the weather conditions in past years. The results will help you decide how hot, cold, wet, or windy it might be!

Date:

Astronomy

Feb. 22, 2013 Rise Set
Actual Time 7:06 AM CST 6:03 PM CST
Civil Twilight 6:38 AM CST 6:31 PM CST
Nautical Twilight 6:06 AM CST 7:04 PM CST
Astronomical Twilight 5:34 AM CST 7:36 PM CST
Moon 3:14 PM CST (2/22) 4:54 AM CST (2/22)
Length of Visible Light 11h 53m
Length of Day
10h 56m
Waxing Gibbous, 90% of the Moon is Illuminated
Feb 22
Waxing Gibbous
Feb 25
Full
Mar 4
Last Quarter
Mar 11
New
Mar 19
First Quarter

Hourly Weather History & Observations

Time (CST) Temp. Windchill Dew Point Humidity Pressure Visibility Wind Dir Wind Speed Gust Speed Precip Events Conditions
12:15 AM 19.4 °F 4.5 °F 15.8 °F 86% 29.84 in 1.2 mi NE 17.3 mph 25.3 mph N/A Snow Light Snow
12:55 AM 19.4 °F 6.0 °F 15.8 °F 86% 29.83 in 1.2 mi NE 13.8 mph - N/A Snow Light Snow
1:15 AM 19.4 °F 7.2 °F 15.8 °F 86% 29.83 in 2.0 mi NE 11.5 mph 19.6 mph N/A Snow Light Snow
1:35 AM 19.4 °F 6.6 °F 15.8 °F 86% 29.83 in 2.0 mi NE 12.7 mph 20.7 mph N/A Snow Light Snow
1:55 AM 19.4 °F 7.2 °F 15.8 °F 86% 29.82 in 1.2 mi NE 11.5 mph 19.6 mph N/A Snow Light Snow
2:15 AM 19.4 °F 6.0 °F 15.8 °F 86% 29.82 in 1.8 mi NE 13.8 mph - N/A Snow Light Snow
2:35 AM 19.4 °F 7.2 °F 15.8 °F 86% 29.82 in 2.5 mi NE 11.5 mph 18.4 mph N/A Snow Light Snow
2:55 AM 19.4 °F 7.2 °F 15.8 °F 86% 29.82 in 4.0 mi NNE 11.5 mph 19.6 mph N/A Snow Light Snow
3:15 AM 19.4 °F 6.6 °F 15.8 °F 86% 29.81 in 1.8 mi NNE 12.7 mph - N/A Snow Light Snow
3:35 AM 19.4 °F 6.6 °F 15.8 °F 86% 29.81 in 1.5 mi NNE 12.7 mph - N/A Snow Light Snow
3:55 AM 19.4 °F 6.6 °F 15.8 °F 86% 29.81 in 2.0 mi NNE 12.7 mph - N/A Snow Light Snow
4:15 AM 19.4 °F 9.5 °F 15.8 °F 86% 29.81 in 3.0 mi NNE 8.1 mph - N/A Snow Light Snow
4:35 AM 19.4 °F 8.6 °F 15.8 °F 86% 29.81 in 4.0 mi North 9.2 mph - N/A Snow Light Snow
4:55 AM 19.4 °F 9.5 °F 15.8 °F 86% 29.82 in 9.0 mi North 8.1 mph - N/A Snow Light Snow
5:15 AM 17.6 °F 6.4 °F 14.0 °F 86% 29.83 in 10.0 mi North 9.2 mph - N/A Snow Light Snow
5:35 AM 17.6 °F 5.7 °F 14.0 °F 86% 29.83 in 10.0 mi North 10.4 mph - N/A Snow Light Snow
5:55 AM 17.6 °F 5.0 °F 14.0 °F 86% 29.83 in 5.0 mi North 11.5 mph - N/A Snow Light Snow
6:15 AM 17.6 °F 6.4 °F 15.8 °F 93% 29.83 in 1.2 mi North 9.2 mph - N/A Snow Light Snow
6:35 AM 17.6 °F 7.3 °F 15.8 °F 93% 29.83 in 2.0 mi North 8.1 mph - N/A Snow Light Snow
6:55 AM 17.6 °F 6.4 °F 14.0 °F 86% 29.84 in 6.0 mi North 9.2 mph - 0.01 in Snow Light Snow
7:15 AM 17.6 °F 5.7 °F 14.0 °F 86% 29.85 in 8.0 mi NNW 10.4 mph - N/A Snow Light Snow
7:35 AM 17.6 °F 5.7 °F 14.0 °F 86% 29.85 in 10.0 mi NNW 10.4 mph - N/A Snow Light Snow
7:55 AM 17.6 °F 6.4 °F 14.0 °F 86% 29.85 in 10.0 mi NNW 9.2 mph - N/A   Overcast
8:15 AM 17.6 °F 7.3 °F 14.0 °F 86% 29.86 in 10.0 mi NNW 8.1 mph - N/A   Mostly Cloudy
8:35 AM 17.6 °F 6.4 °F 14.0 °F 86% 29.87 in 10.0 mi NNW 9.2 mph - N/A   Mostly Cloudy
8:55 AM 17.6 °F 7.3 °F 14.0 °F 86% 29.88 in 10.0 mi NW 8.1 mph 15.0 mph N/A   Scattered Clouds
9:15 AM 17.6 °F 5.0 °F 14.0 °F 86% 29.89 in 10.0 mi NW 11.5 mph - N/A   Mostly Cloudy
9:35 AM 19.4 °F 7.2 °F 14.0 °F 80% 29.89 in 10.0 mi NW 11.5 mph - N/A   Overcast
9:55 AM 19.4 °F 7.9 °F 14.0 °F 80% 29.90 in 10.0 mi NNW 10.4 mph - N/A   Overcast
10:35 AM 19.4 °F 7.2 °F 14.0 °F 80% 29.90 in 10.0 mi NNW 11.5 mph - N/A   Partly Cloudy
10:55 AM 19.4 °F 7.2 °F 14.0 °F 80% 29.91 in 10.0 mi NW 11.5 mph - N/A   Clear
11:15 AM 19.4 °F 8.6 °F 14.0 °F 80% 29.92 in 10.0 mi NW 9.2 mph - N/A   Clear
11:35 AM 21.2 °F 10.1 °F 14.0 °F 74% 29.92 in 10.0 mi NW 10.4 mph - N/A   Scattered Clouds
11:55 AM 21.2 °F 10.9 °F 14.0 °F 74% 29.93 in 10.0 mi NW 9.2 mph - N/A   Mostly Cloudy
12:15 PM 21.2 °F 10.1 °F 15.8 °F 80% 29.93 in 10.0 mi WNW 10.4 mph - N/A   Overcast
12:35 PM 21.2 °F 9.5 °F 15.8 °F 80% 29.93 in 10.0 mi WNW 11.5 mph - N/A   Overcast
12:55 PM 23.0 °F 11.7 °F 15.8 °F 74% 29.93 in 10.0 mi WNW 11.5 mph - N/A   Overcast
1:15 PM 23.0 °F 11.1 °F 15.8 °F 74% 29.92 in 10.0 mi WNW 12.7 mph - N/A   Overcast
1:35 PM 23.0 °F 10.6 °F 15.8 °F 74% 29.93 in 10.0 mi WNW 13.8 mph - N/A   Overcast
1:55 PM 23.0 °F 10.6 °F 15.8 °F 74% 29.93 in 10.0 mi WNW 13.8 mph - N/A   Overcast
2:15 PM 23.0 °F 10.1 °F 15.8 °F 74% 29.93 in 10.0 mi WNW 15.0 mph - N/A   Overcast
2:35 PM 23.0 °F 13.1 °F 15.8 °F 74% 29.94 in 10.0 mi WNW 9.2 mph - N/A   Overcast
2:55 PM 23.0 °F 12.4 °F 15.8 °F 74% 29.95 in 10.0 mi WNW 10.4 mph 17.3 mph N/A   Overcast
3:15 PM 21.2 °F 7.3 °F 15.8 °F 80% 29.95 in 10.0 mi West 16.1 mph - N/A   Mostly Cloudy
3:35 PM 21.2 °F 8.3 °F 15.8 °F 80% 29.95 in 10.0 mi West 13.8 mph - N/A   Overcast
3:55 PM 21.2 °F 8.3 °F 15.8 °F 80% 29.95 in 10.0 mi West 13.8 mph - N/A Rain Light Freezing Rain
4:15 PM 21.2 °F 8.3 °F 15.8 °F 80% 29.95 in 10.0 mi West 13.8 mph - N/A Rain Light Freezing Rain
4:35 PM 21.2 °F 9.5 °F 15.8 °F 80% 29.95 in 10.0 mi West 11.5 mph - N/A   Overcast
4:55 PM 21.2 °F 8.9 °F 15.8 °F 80% 29.96 in 10.0 mi West 12.7 mph - N/A Snow Light Snow
5:15 PM 21.2 °F 10.9 °F 15.8 °F 80% 29.96 in 10.0 mi WNW 9.2 mph - N/A Snow Light Snow
5:35 PM 21.2 °F 10.9 °F 14.0 °F 74% 29.96 in 10.0 mi WNW 9.2 mph - N/A   Mostly Cloudy
5:55 PM 19.4 °F 9.5 °F 14.0 °F 80% 29.96 in 10.0 mi WNW 8.1 mph - N/A   Overcast
6:15 PM 19.4 °F 9.5 °F 14.0 °F 80% 29.97 in 10.0 mi West 8.1 mph - N/A   Overcast
6:35 PM 19.4 °F 9.5 °F 14.0 °F 80% 29.97 in 10.0 mi West 8.1 mph - N/A   Overcast
6:55 PM 19.4 °F 9.5 °F 14.0 °F 80% 29.97 in 10.0 mi WNW 8.1 mph - N/A   Overcast
7:15 PM 19.4 °F 11.5 °F 14.0 °F 80% 29.98 in 10.0 mi West 5.8 mph - N/A   Overcast
7:35 PM 17.6 °F 9.3 °F 12.2 °F 79% 29.98 in 10.0 mi West 5.8 mph - N/A   Mostly Cloudy
7:55 PM 17.6 °F 10.7 °F 12.2 °F 79% 29.98 in 10.0 mi West 4.6 mph - N/A   Scattered Clouds
8:15 PM 17.6 °F 8.2 °F 12.2 °F 79% 29.98 in 10.0 mi WSW 6.9 mph - N/A   Mostly Cloudy
8:35 PM 15.8 °F 7.2 °F 12.2 °F 86% 29.98 in 10.0 mi West 5.8 mph - N/A   Scattered Clouds
8:55 PM 15.8 °F 7.2 °F 12.2 °F 86% 29.98 in 10.0 mi WSW 5.8 mph - N/A   Mostly Cloudy
9:15 PM 14.0 °F 6.5 °F 10.4 °F 86% 29.98 in 10.0 mi WSW 4.6 mph - N/A   Overcast
9:35 PM 14.0 °F 5.1 °F 10.4 °F 86% 29.98 in 10.0 mi WSW 5.8 mph - N/A   Overcast
9:55 PM 14.0 °F 6.5 °F 10.4 °F 86% 29.98 in 10.0 mi WSW 4.6 mph - N/A Snow Light Snow
10:15 PM 12.2 °F 6.1 °F 10.4 °F 92% 29.98 in 10.0 mi SW 3.5 mph - N/A   Scattered Clouds
10:35 PM 12.2 °F 6.1 °F 10.4 °F 92% 29.98 in 10.0 mi SW 3.5 mph - N/A Snow Light Snow
10:55 PM 12.2 °F - 10.4 °F 92% 29.98 in 10.0 mi Calm Calm - N/A   Clear
11:15 PM 12.2 °F 4.3 °F 10.4 °F 92% 29.97 in 8.0 mi WSW 4.6 mph - N/A   Clear
11:35 PM 10.4 °F 4.0 °F 8.6 °F 92% 29.97 in 8.0 mi SW 3.5 mph - N/A   Clear
11:55 PM 10.4 °F - 8.6 °F 92% 29.97 in 7.0 mi Calm Calm - N/A   Clear